SEH481 LGPA-LGNX

Flight info

Callsign SEH481
Flight time 0h 13m
Altitude 9000
Route RAPOS DCT RIPLI
Aircraft AT76/M-SDFGIRY/S

Departure

Time 2026-04-18 14:09
Airport Paros National Airport (LGPA)

Arrival

Time 2026-04-18 14:22
Airport Naxos Island National Airport (LGNX)
Time Latitude Longitude Altitude Speed Heading
2026-04-18 14:04 37.02018 25.11569 109 ft 0 kts 30°
2026-04-18 14:05 37.02029 25.11598 137 ft 4 kts 104°
2026-04-18 14:05 37.01966 25.11560 137 ft 19 kts 241°
2026-04-18 14:06 37.01885 25.11448 136 ft 22 kts 217°
2026-04-18 14:06 37.01840 25.11412 135 ft 15 kts 213°
2026-04-18 14:06 37.01662 25.11415 135 ft 30 kts 168°
2026-04-18 14:06 37.01534 25.11473 135 ft 15 kts 148°
2026-04-18 14:07 37.01494 25.11441 135 ft 12 kts 290°
2026-04-18 14:07 37.01554 25.11439 135 ft 11 kts
2026-04-18 14:07 37.01560 25.11438 135 ft 0 kts 346°
2026-04-18 14:08 37.01690 25.11407 135 ft 48 kts 348°
2026-04-18 14:08 37.02209 25.11280 145 ft 99 kts 343°
2026-04-18 14:08 37.02900 25.11157 636 ft 102 kts
2026-04-18 14:09 37.03662 25.11215 1043 ft 115 kts 357°
2026-04-18 14:09 37.04497 25.11082 1440 ft 119 kts 353°
2026-04-18 14:09 37.05329 25.10814 1904 ft 123 kts 347°
2026-04-18 14:09 37.06128 25.10562 2379 ft 126 kts 351°
2026-04-18 14:10 37.07023 25.10193 2505 ft 145 kts 352°
2026-04-18 14:10 37.08042 25.10069 2831 ft 149 kts
2026-04-18 14:10 37.09074 25.10045 3215 ft 150 kts
2026-04-18 14:10 37.10040 25.10460 3527 ft 152 kts 33°
2026-04-18 14:11 37.10907 25.11217 3930 ft 152 kts 32°
2026-04-18 14:11 37.11783 25.11966 4316 ft 153 kts 32°
2026-04-18 14:11 37.12668 25.12729 4694 ft 155 kts 32°
2026-04-18 14:11 37.13563 25.13498 5072 ft 156 kts 33°
2026-04-18 14:12 37.14449 25.14271 5467 ft 157 kts 32°
2026-04-18 14:12 37.15337 25.15070 5889 ft 156 kts 36°
2026-04-18 14:12 37.16055 25.16149 6222 ft 165 kts 49°
2026-04-18 14:12 37.16695 25.17349 6585 ft 166 kts 51°
2026-04-18 14:13 37.17328 25.18582 6929 ft 169 kts 51°
2026-04-18 14:13 37.17962 25.19837 7255 ft 172 kts 51°
2026-04-18 14:13 37.18590 25.21100 7593 ft 174 kts 52°
2026-04-18 14:13 37.19235 25.22365 8104 ft 163 kts 49°
2026-04-18 14:14 37.19826 25.23502 8678 ft 151 kts 49°
2026-04-18 14:14 37.20395 25.24640 8866 ft 161 kts 50°
2026-04-18 14:14 37.21010 25.25908 8934 ft 179 kts 51°
2026-04-18 14:14 37.21631 25.27357 8958 ft 200 kts 66°
2026-04-18 14:15 37.21524 25.29216 8980 ft 234 kts 107°
2026-04-18 14:15 37.20443 25.30823 8974 ft 259 kts 143°
2026-04-18 14:15 37.18698 25.31580 8976 ft 274 kts 173°
2026-04-18 14:15 37.16742 25.31790 8746 ft 292 kts 175°
2026-04-18 14:16 37.14692 25.32130 8368 ft 294 kts 171°
2026-04-18 14:16 37.12681 25.32302 7978 ft 290 kts 181°
2026-04-18 14:16 37.10663 25.32033 7574 ft 283 kts 191°
2026-04-18 14:16 37.08823 25.31412 7465 ft 267 kts 201°
2026-04-18 14:17 37.07078 25.30590 7150 ft 265 kts 202°
2026-04-18 14:17 37.05293 25.29962 6648 ft 272 kts 191°
2026-04-18 14:17 37.01568 25.29781 5948 ft 257 kts 164°
2026-04-18 14:18 36.98559 25.31744 5276 ft 241 kts 130°
2026-04-18 14:18 36.97567 25.33383 4780 ft 230 kts 113°
2026-04-18 14:19 36.98043 25.36412 3468 ft 189 kts 19°
2026-04-18 14:19 36.99365 25.36525 2907 ft 190 kts
2026-04-18 14:19 37.01859 25.36697 1761 ft 168 kts
2026-04-18 14:20 37.03010 25.36698 1362 ft 153 kts
2026-04-18 14:20 37.04017 25.36754 1067 ft 135 kts
2026-04-18 14:20 37.04943 25.36668 777 ft 126 kts 359°
2026-04-18 14:20 37.05718 25.36762 602 ft 105 kts
2026-04-18 14:21 37.06410 25.36782 418 ft 96 kts
2026-04-18 14:21 37.07081 25.36785 204 ft 97 kts
2026-04-18 14:21 37.07754 25.36808 24 ft 90 kts
2026-04-18 14:22 37.08112 25.36830 25 ft 4 kts 60°
2026-04-18 14:22 37.08125 25.36910 26 ft 7 kts 89°
2026-04-18 14:22 37.08125 25.36921 25 ft 0 kts 90°